Weather History for Atlantic City, NJ

Change the Weather History Date:

Tuesday, December 11, 2012

  Actual Average Record
Temperature  
Mean Temperature 49 °F 38 °F  
Max Temperature 61 °F 47 °F 66 °F (1971)
Min Temperature 37 °F 30 °F 5 °F (1968)
Degree Days  
Heating Degree Days 16 27  
Month to date heating degree days 187 275  
Since 1 July heating degree days 1153 1182  
Cooling Degree Days 0 0  
Month to date cooling degree days 0 0  
Year to date cooling degree days 1218 1055  
Moisture  
Dew Point 40 °F    
Average Humidity 75    
Maximum Humidity 93    
Minimum Humidity 56    
Precipitation  
Precipitation 0.01 in 0.12 in 3.68 in (2008)
Month to date precipitation 3.08 1.35  
Year to date precipitation 44.53 39.41  
Snow  
Snow 0.00 in 0.10 in 6.20 in (1960)
Month to date snowfall 0.0 1.0  
Since 1 July snowfall 2.5 1.2  
Snow Depth 0.00 in    
Sea Level Pressure  
Sea Level Pressure 29.91 in    
Wind  
Wind Speed 8 mph (NW)    
Max Wind Speed 26 mph    
Max Gust Speed 32 mph    
Visibility 10 miles    
Events Rain    
T = Trace of Precipitation, MM = Missing Value Source: NWS Daily Summary

Daily Weather History Graph

Daily Weather History Graph

Search for Another Location

Airport:

Trip Planner

Search our weather history database for the weather conditions in past years. The results will help you decide how hot, cold, wet, or windy it might be!

Date:

Astronomy

Dec. 11, 2012 Rise Set
Actual Time 7:08 AM EST 4:34 PM EST
Civil Twilight 6:38 AM EST 5:04 PM EST
Nautical Twilight 6:04 AM EST 5:38 PM EST
Astronomical Twilight 5:32 AM EST 6:11 PM EST
Moon 5:00 AM EST (12/11) 3:11 PM EST (12/11)
Length of Visible Light 10h 26m
Length of Day
9h 26m
Waning Crescent, 4% of the Moon is Illuminated
Dec 11
Waning Crescent
Dec 13
New
Dec 20
First Quarter
Dec 28
Full
Jan 4
Last Quarter

Hourly Weather History & Observations

Time (EST) Temp. Windchill Dew Point Humidity Pressure Visibility Wind Dir Wind Speed Gust Speed Precip Events Conditions
12:54 AM 60.1 °F - 55.9 °F 86% 29.62 in 10.0 mi SSW 9.2 mph - N/A   Partly Cloudy
1:54 AM 61.0 °F - 55.9 °F 83% 29.65 in 10.0 mi WSW 8.1 mph - N/A   Mostly Cloudy
2:54 AM 61.0 °F - 55.9 °F 83% 29.67 in 10.0 mi SW 6.9 mph - N/A   Overcast
3:28 AM 59.0 °F - 55.4 °F 88% 29.69 in 9.0 mi NW 20.7 mph 28.8 mph 0.00 in Rain Light Rain
3:41 AM 51.8 °F - 48.2 °F 88% 29.71 in 10.0 mi North 13.8 mph - 0.01 in Rain Light Rain
3:54 AM 50.0 °F - 46.0 °F 86% 29.72 in 10.0 mi NNW 15.0 mph - 0.01 in   Overcast
4:25 AM 46.4 °F 40.1 °F 44.6 °F 93% 29.73 in 10.0 mi North 15.0 mph 20.7 mph 0.00 in   Overcast
4:40 AM 46.4 °F 42.4 °F 42.8 °F 87% 29.74 in 10.0 mi NNW 8.1 mph - 0.00 in   Overcast
4:54 AM 46.9 °F - 43.0 °F 86% 29.77 in 10.0 mi NW 13.8 mph 18.4 mph 0.00 in   Overcast
5:45 AM 46.4 °F 40.7 °F 42.8 °F 87% 29.79 in 10.0 mi NNW 12.7 mph - N/A   Overcast
5:54 AM 46.0 °F 39.3 °F 42.1 °F 86% 29.81 in 10.0 mi NNW 16.1 mph - N/A   Overcast
6:54 AM 45.0 °F 39.7 °F 41.0 °F 86% 29.83 in 10.0 mi NNW 10.4 mph - N/A   Overcast
7:54 AM 45.0 °F 40.1 °F 41.0 °F 86% 29.87 in 10.0 mi NNW 9.2 mph - N/A   Mostly Cloudy
8:54 AM 46.0 °F 40.6 °F 39.0 °F 76% 29.90 in 10.0 mi NNW 11.5 mph - N/A   Overcast
9:54 AM 46.0 °F 41.0 °F 37.0 °F 71% 29.95 in 10.0 mi NNW 10.4 mph - N/A   Overcast
10:54 AM 48.0 °F - 37.9 °F 68% 29.96 in 10.0 mi NW 13.8 mph - N/A   Mostly Cloudy
11:05 AM 48.2 °F - 37.4 °F 66% 29.95 in 10.0 mi North 8.1 mph - N/A   Mostly Cloudy
11:49 AM 48.2 °F - 37.4 °F 66% 29.95 in 10.0 mi NW 10.4 mph - N/A   Overcast
11:54 AM 48.9 °F - 37.0 °F 64% 29.95 in 10.0 mi NNW 9.2 mph - N/A   Mostly Cloudy
12:25 PM 50.0 °F - 37.4 °F 62% 29.96 in 10.0 mi WNW 6.9 mph - N/A   Overcast
12:50 PM 50.0 °F - 37.4 °F 62% 29.96 in 10.0 mi NNW 8.1 mph - N/A   Overcast
12:54 PM 48.9 °F - 37.0 °F 64% 29.96 in 10.0 mi NNW 6.9 mph - N/A   Overcast
1:20 PM 50.0 °F - 35.6 °F 58% 29.96 in 10.0 mi North 10.4 mph - N/A   Overcast
1:54 PM 50.0 °F - 36.0 °F 59% 29.97 in 10.0 mi NNW 9.2 mph - N/A   Scattered Clouds
2:54 PM 50.0 °F - 37.0 °F 61% 30.00 in 10.0 mi NNW 9.2 mph - N/A   Overcast
3:54 PM 48.9 °F - 35.1 °F 59% 30.02 in 10.0 mi NNW 6.9 mph - N/A   Mostly Cloudy
4:54 PM 46.9 °F - 34.0 °F 61% 30.06 in 10.0 mi Calm Calm - N/A   Overcast
5:54 PM 46.0 °F - 35.1 °F 66% 30.09 in 10.0 mi Calm Calm - N/A   Mostly Cloudy
6:54 PM 43.0 °F 41.3 °F 35.1 °F 74% 30.13 in 10.0 mi West 3.5 mph - N/A   Overcast
7:54 PM 42.1 °F 39.2 °F 34.0 °F 73% 30.14 in 10.0 mi WNW 4.6 mph - N/A   Scattered Clouds
8:54 PM 42.1 °F 38.4 °F 33.1 °F 70% 30.17 in 10.0 mi NW 5.8 mph - N/A   Overcast
9:54 PM 39.9 °F 36.7 °F 30.9 °F 70% 30.19 in 10.0 mi WNW 4.6 mph - N/A   Partly Cloudy
10:54 PM 39.0 °F 34.0 °F 30.0 °F 70% 30.21 in 10.0 mi NW 6.9 mph - N/A   Clear
11:54 PM 37.0 °F 33.3 °F 28.9 °F 73% 30.21 in 10.0 mi NNW 4.6 mph - N/A   Clear